Weather Roundup
Issued by NWS

Home | Current Version | Previous Version | Graphics & Text | Print | Product List | Glossary Off
Versions: 1 2 3 4 5 6 7 8 9 10 11 12 13 14 15 16 17 18 19 20 21 22 23 24 25 26 27 28 29 30 31 32 33 34 35 36 37 38 39 40 41 42 43 44 45 46 47 48 49 50

126
NZUS93 KARX 211159
HRRWXR

CURRENT HOURLY OBSERVATIONS ACROSS
MUCH OF THE UPPER MISSISSIPPI VALLEY
NATIONAL WEATHER SERVICE LA CROSSE WI
600 AM CST SAT JAN 21 2017


...SOUTHEAST MINNESOTA...


CITY           SKY/WX    TMP DP  RH WIND       PRES   REMARKS
ROCHESTER      LGT RAIN  34  34 100 NE10      29.39F FOG     WCI  26
ROCHESTER/MAYO CLOUDY    36  36 100 NE7       29.41S VSB 1   WCI  30
WINONA         RAIN      36  36 100 CALM      29.45S
AUSTIN         LGT RAIN  36  34  93 E9        29.38S WCI  29
ALBERT LEA     DRIZZLE   36  36 100 E5        29.38S WCI  32
DODGE CENTER   LGT SNOW  34  34 100 CALM      29.39F
PRESTON        LGT RAIN  34  33  97 E7        29.40F WCI  28
OWATONNA       RAIN      36  34  93 E9        29.40S WCI  29
FARIBAULT      NOT AVBL
$$

...ELSEWHERE IN MINNESOTA...


CITY           SKY/WX    TMP DP  RH WIND       PRES   REMARKS
MINNEAPOLIS    CLOUDY    35  34  96 E8        29.44F FOG     WCI  29
INTNL FALLS    CLOUDY    33  32  96 E8        29.50S WCI  26
DULUTH         DRZL/FOG  34  34 100 SE7       29.50S VSB 1/8 WCI  28
RED WING       CLOUDY    36  34  93 E9        29.43F FOG     WCI  29
REDWOOD FALLS  FOG       34  33  96 E5        29.39S VSB 1/2 WCI  30
MANKATO        LGT RAIN  35  34  96 E7        29.40S WCI  29
WORTHINGTON    LGT RAIN  33  33 100 E5        29.36S VSB 1/2 WCI  29
FAIRMONT       LGT RAIN  34  33  96 E3        29.38S VSB 3/4
$$

...SOUTHWEST WISCONSIN...


CITY           SKY/WX    TMP DP  RH WIND       PRES   REMARKS
LA CROSSE      LGT RAIN  40  36  86 NE10      29.42F WCI  33
PRAIRIE DU CHI FOG       36  35  96 CALM      29.44R VSB 1
BOSCOBEL       CLOUDY    37  36  96 NE5       29.46S FOG     WCI  33
LONE ROCK      NOT AVBL
PLATTEVILLE    CLOUDY    38  38 100 E8        29.45S VSB 1/4 WCI  32
FORT MC COY    CLOUDY    34  34 100 E7        29.47F FOG     WCI  28
CAMP DOUGLAS   FOG       34  34 100 E6        29.48S VSB 3/4 WCI  29
MAUSTON-NEW LI FOG       35  35 100 E5        29.47F VSB 1/2 WCI  31
VIROQUA        CLOUDY    35  35 100 E10       29.43F VSB 1/4 WCI  27
WIS DELLS      FOG       34  34  99 E7        29.48F VSB<1/4 WCI  28
$$

...ELSEWHERE IN WISCONSIN...


CITY           SKY/WX    TMP DP  RH WIND       PRES   REMARKS
MILWAUKEE      FOG       40  38  93 SE5       29.54F VSB 1/4
MADISON        FOG       38  38 100 E7        29.49F VSB 3/4 WCI  33
GREEN BAY      CLOUDY    37  37 100 E5        29.57F FOG     WCI  33
EAU CLAIRE     CLOUDY    34  34 100 E8        29.47F FOG     WCI  27
BLACK RVR FLS  FOG       35  35 100 E3        29.47S VSB 1/2
MEDFORD        CLOUDY    32  32  99 E8        29.50F FOG     WCI  25
WAUSAU         CLOUDY    33  33 100 SE8       29.52S FOG     WCI  26
WIS RAPIDS     CLOUDY    34  34 100 E12       29.50F FOG     WCI  25
MARSHFIELD     FOG       33  32  96 E12       29.48F VSB 1/4 WCI  24
RICE LAKE      FOG       34  34 100 E5        29.50F VSB 1   WCI  30
$$

...NORTHEAST IOWA...


CITY           SKY/WX    TMP DP  RH WIND       PRES   REMARKS
WATERLOO       CLOUDY    41  40  96 S7        29.39S FOG
DUBUQUE        FOG       41  41 100 S7        29.43R VSB 1/4
DECORAH        CLOUDY    36  36 100 SE9       29.40S FOG     WCI  29
MASON CITY     MIX PCPN  35  34  96 SE6       29.39R VSB 1   WCI  30
CHARLES CITY   FOG       36  36 100 SE9       29.39S VSB 3/4 WCI  29
OELWEIN        FOG       37  37 100 SE10      29.41S VSB 1/4 WCI  30
$$

...ELSEWHERE IN IOWA...


CITY           SKY/WX    TMP DP  RH WIND       PRES   REMARKS
DES MOINES     DRZL/FOG  44  43  96 S7        29.39S VSB 1/4
IOWA CITY      CLOUDY    45  44  97 SW8       29.43S FOG
FORT DODGE     CLOUDY    36  34  93 CALM      29.37F
MARSHALLTOWN   CLOUDY    41  41 100 S8        29.38S FOG
CEDAR RAPIDS   FOG       41  41 100 SW8       29.40S VSB 1/4
$$

...NORTHERN ILLINOIS...


CITY           SKY/WX    TMP DP  RH WIND       PRES   REMARKS
CHICAGO-OHARE  CLOUDY    47  47 100 SE7       29.53S FOG
CHICAGO-MIDWAY CLOUDY    48  46  93 SE7       29.54F FOG
MOLINE         CLEAR     47  44  90 S8        29.42F
ROCKFORD       FOG       46  45  96 SE7       29.50S VSB 1
PEORIA         CLEAR     47  46  97 S10       29.48F
$$

NOTE: "FAIR" INDICATES FEW OR NO CLOUDS BELOW 12,000 FEET WITH NO
SIGNIFICANT WEATHER AND/OR OBSTRUCTIONS TO VISIBILITY. WIND
SPEEDS ARE IN MILES-PER-HOUR.




USA.gov is the U.S. government's official web portal to all federal, state and local government web resources and services.